This demonstration page uses our WeatherBlox Daily Observations layout. Learn more.

38.88101, -77.10428

Hourly Observations for August 9, 2016

Temp ( °F °C ) Dew Point ( °F °C ) Humidity (%) Winds ( mph kmh ) Pressure ( in mb ) Visibility ( mi km ) Precip ( " mm )
12:52 am 00:52 Mostly Clear 71 21.7 62 16.7 73 73 SSW 3 6 30.15 1021 10 16.09344 0 0
1:52 am 01:52 Mostly Clear 70 21.1 63 17.2 79 79 Calm 30.15 1021 10 16.09344 0 0
2:52 am 02:52 Mostly Clear 69 20.6 63 17.2 81 81 SSW 3 6 30.15 1021 10 16.09344 0 0
3:52 am 03:52 Partly Cloudy 70 21.1 64 17.8 82 82 Calm 30.15 1021 10 16.09344 0 0
4:52 am 04:52 Partly Cloudy 70 21.1 64 17.8 82 82 Calm 30.15 1021 10 16.09344 0 0
5:52 am 05:52 Partly Cloudy 69 20.6 65 18.3 87 87 Calm 30.15 1021 10 16.09344 0 0
6:52 am 06:52 Mostly Cloudy 71 21.7 65 18.3 81 81 Calm 30.18 1022 10 16.09344 0 0
7:52 am 07:52 Mostly Cloudy 72 22.2 65 18.3 79 79 Calm 30.18 1022 10 16.09344 0 0
8:52 am 08:52 Mostly Cloudy 74 23.3 64 17.8 71 71 ESE 3 6 30.18 1022 10 16.09344 0 0
9:52 am 09:52 Cloudy 76 24.4 64 17.8 67 67 SW 5 7 30.21 1023 10 16.09344 0 0
10:52 am 10:52 Cloudy 76 24.4 65 18.3 69 69 S 3 6 30.21 1023 10 16.09344 0 0
11:52 am 11:52 Cloudy 80 26.7 66 18.9 62 62 N 5 7 30.21 1023 10 16.09344 0 0
12:52 pm 12:52 Cloudy 79 26.1 68 20 69 69 S 6 9 30.21 1023 10 16.09344 0 0
1:39 pm 13:39 Cloudy 81 27.2 69 20.6 67 67 S 5 7 30.21 1023 10 16.09344 0 0
1:52 pm 13:52 Cloudy 81 27.2 69 20.6 67 67 S 6 9 30.21 1023 10 16.09344 0 0
2:52 pm 14:52 Cloudy 80 26.7 70 21.1 71 71 SSW 8 13 30.21 1023 10 16.09344 0 0
3:52 pm 15:52 Cloudy 78 25.6 71 21.7 79 79 N 5 7 30.18 1022 10 16.09344 0.001 0.001
4:52 pm 16:52 Cloudy 79 26.1 73 22.8 82 82 SSE 8 13 30.18 1022 10 16.09344 0 0
5:52 pm 17:52 Cloudy 79 26.1 73 22.8 82 82 S 7 11 30.18 1022 10 16.09344 0 0
6:11 pm 18:11 Cloudy with Light Rain 78 25.6 74 23.3 87 87 S 6 9 30.18 1022 7 11.265408 0.001 0.001
6:43 pm 18:43 Cloudy 79 26.1 73 22.8 82 82 S 5 7 30.15 1021 10 16.09344 0.001 0.001
6:52 pm 18:52 Cloudy 79 26.1 73 22.8 82 82 S 3 6 30.15 1021 10 16.09344 0.001 0.001
7:13 pm 19:13 Cloudy 80 26.7 73 22.8 79 79 S 5 7 30.15 1021 10 16.09344 0 0
7:40 pm 19:40 Cloudy 79 26.1 73 22.8 82 82 SSE 7 11 30.15 1021 10 16.09344 0 0
7:46 pm 19:46 Cloudy 79 26 73 23 84 84 SSE 6 9 30.15 1021 10 16.09344 0 0
7:52 pm 19:52 Cloudy 79 26.1 73 22.8 82 82 SSE 7 11 30.15 1021 10 16.09344 0 0
8:52 pm 20:52 Mostly Cloudy 78 25.6 74 23.3 87 87 SE 3 6 30.18 1022 10 16.09344 0 0
8:54 pm 20:54 Mostly Cloudy 78 25.6 74 23.3 87 87 SE 3 6 30.18 1022 10 16.09344 0 0
9:52 pm 21:52 Cloudy 79 26.1 74 23.3 85 85 SSE 5 7 30.18 1022 10 16.09344 0 0
10:13 pm 22:13 Mostly Cloudy 78 25.6 74 23.3 87 87 SSE 6 9 30.18 1022 10 16.09344 0 0
10:52 pm 22:52 Mostly Cloudy 79 26.1 74 23.3 85 85 S 8 13 30.18 1022 10 16.09344 0 0
11:52 pm 23:52 Mostly Cloudy 78 25.6 74 23.3 87 87 S 8 13 30.18 1022 10 16.09344 0 0

Powered by AerisWeather